TimeMDT,TemperatureF,Dew PointF,Humidity,Sea Level PressureIn,VisibilityMPH,Wind Direction,Wind SpeedMPH,Gust SpeedMPH,PrecipitationIn,Events,Conditions,WindDirDegrees,DateUTC
12:17 AM,28.4,26.6,93,30.26,9.0,NNW,3.5,-,N/A,,Scattered Clouds,330,2013-05-05 06:17:00
12:53 AM,27.0,26.1,96,30.01,10.0,Calm,Calm,-,N/A,,Clear,0,2013-05-05 06:53:00
1:53 AM,26.1,24.1,92,29.99,10.0,East,3.5,-,N/A,,Clear,80,2013-05-05 07:53:00
2:53 AM,26.1,23.0,88,29.96,10.0,Calm,Calm,-,N/A,,Clear,0,2013-05-05 08:53:00
3:53 AM,24.1,21.0,88,30.00,10.0,Calm,Calm,-,N/A,,Clear,0,2013-05-05 09:53:00
4:53 AM,24.1,19.9,84,30.01,10.0,North,3.5,-,N/A,,Clear,350,2013-05-05 10:53:00
5:53 AM,25.0,19.9,81,30.01,10.0,Calm,Calm,-,N/A,,Clear,0,2013-05-05 11:53:00
6:53 AM,24.1,21.0,88,30.08,10.0,Calm,Calm,-,N/A,,Clear,0,2013-05-05 12:53:00
7:53 AM,26.1,21.0,81,30.06,10.0,South,4.6,-,N/A,,Partly Cloudy,180,2013-05-05 13:53:00
8:53 AM,28.0,21.0,75,30.06,10.0,Calm,Calm,-,N/A,,Clear,0,2013-05-05 14:53:00
9:53 AM,32.0,21.9,66,30.02,10.0,SW,3.5,-,N/A,,Clear,230,2013-05-05 15:53:00
10:53 AM,36.0,21.9,57,30.02,10.0,Variable,5.8,-,N/A,,Clear,0,2013-05-05 16:53:00
11:53 AM,43.0,21.0,42,29.95,10.0,SSW,11.5,-,N/A,,Clear,200,2013-05-05 17:53:00
12:53 PM,44.1,19.9,38,29.94,10.0,South,15.0,-,N/A,,Clear,180,2013-05-05 18:53:00
1:53 PM,45.0,16.0,31,29.93,10.0,South,10.4,-,N/A,,Clear,170,2013-05-05 19:53:00
2:53 PM,46.0,14.0,28,29.92,10.0,South,5.8,-,N/A,,Scattered Clouds,180,2013-05-05 20:53:00
3:53 PM,46.9,12.0,24,29.91,10.0,Variable,4.6,-,N/A,,Scattered Clouds,0,2013-05-05 21:53:00
4:53 PM,46.9,16.0,29,29.91,10.0,WNW,5.8,-,N/A,,Scattered Clouds,290,2013-05-05 22:53:00
5:53 PM,43.0,21.0,42,29.96,10.0,South,11.5,-,N/A,,Overcast,170,2013-05-05 23:53:00
6:53 PM,43.0,21.0,42,29.95,10.0,SW,9.2,-,N/A,,Overcast,220,2013-05-06 00:53:00
7:53 PM,41.0,23.0,49,29.96,10.0,SE,5.8,-,N/A,,Overcast,130,2013-05-06 01:53:00
8:53 PM,37.9,23.0,55,29.99,10.0,South,5.8,-,N/A,,Partly Cloudy,170,2013-05-06 02:53:00
9:53 PM,35.1,21.9,59,29.98,10.0,NNE,3.5,-,N/A,,Clear,20,2013-05-06 03:53:00
10:53 PM,34.0,23.0,64,29.98,10.0,Calm,Calm,-,N/A,,Mostly Cloudy,0,2013-05-06 04:53:00
11:53 PM,32.0,21.9,66,29.93,10.0,NE,4.6,-,N/A,,Overcast,40,2013-05-06 05:53:00